sat.trackr.live / text

‹ back to catalog

STARLINK-31612

NORAD 59337 · 2024-057T

PAYLOAD ACTIVE UNKNOWN

§ Identity

Operator
Country
US
Launch date
2024-03-25
Launch site
AFETR
Launch vehicle
Mass (kg)
RCS (m²)

Purposes: comms

External: N2YO · Heavens-Above · Gunter

§ Orbital elements

Epoch: 2026-05-25T05:21:09.715968Z

Period
94.27 min
Inclination
43.0060°
Eccentricity
0.0000946
Mean motion
15.27575410 rev/d
Perigee alt
482.4 km
Apogee alt
483.7 km
Semi-major
6,861.2 km
B*
1.5423e-5
RAAN
114.8752°
Arg perigee
276.3322°
Mean anomaly
83.7422°
Rev number
12,154

§ Raw data

STARLINK-316121 59337U 24057T   26145.22302912  .00000162  00000+0  15423-4 0  99912 59337  43.0060 114.8752 0000946 276.3322  83.7422 15.27575410121540

JSON: /api/v1/satellites/59337 · /tle

For live sub-satellite position, see the globe view (requires WebGL).

§ Visibility from observer

Set your observer location to see the next 7 days of passes ≥ 10°. The values pass through the URL so the page stays shareable.

No JS? Fill the form by hand. The geolocation button needs JavaScript.